TimeEDT,TemperatureF,Dew PointF,Humidity,Sea Level PressureIn,VisibilityMPH,Wind Direction,Wind SpeedMPH,Gust SpeedMPH,PrecipitationIn,Events,Conditions,WindDirDegrees,DateUTC
12:40 AM,39.2,37.4,93,29.66,10.0,WNW,10.4,-,0.01,,Overcast,290,2012-11-01 04:40:00
12:56 AM,39.0,37.0,93,29.69,7.0,West,9.2,-,0.01,,Overcast,280,2012-11-01 04:56:00
1:36 AM,37.4,37.4,100,29.66,5.0,West,8.1,-,0.01,,Overcast,280,2012-11-01 05:36:00
1:56 AM,37.9,37.0,97,29.69,9.0,West,9.2,-,0.01,Rain,Light Rain,280,2012-11-01 05:56:00
2:33 AM,37.4,37.4,100,29.66,8.0,WNW,10.4,-,0.01,,Overcast,290,2012-11-01 06:33:00
2:56 AM,37.9,37.0,97,29.69,9.0,West,8.1,-,0.02,,Overcast,280,2012-11-01 06:56:00
3:27 AM,37.4,37.4,100,29.67,4.0,West,9.2,-,N/A,,Overcast,280,2012-11-01 07:27:00
3:56 AM,37.9,37.0,97,29.69,4.0,West,9.2,-,0.01,,Overcast,280,2012-11-01 07:56:00
4:56 AM,37.9,37.0,97,29.69,7.0,West,11.5,-,0.01,,Overcast,280,2012-11-01 08:56:00
5:46 AM,37.4,37.4,100,29.67,6.0,West,10.4,-,0.01,,Overcast,280,2012-11-01 09:46:00
5:56 AM,37.9,37.0,97,29.70,5.0,WNW,8.1,-,0.01,,Overcast,290,2012-11-01 09:56:00
7:11 AM,37.4,37.4,100,29.68,4.0,West,8.1,-,0.01,,Overcast,280,2012-11-01 11:11:00
8:56 AM,39.0,37.0,93,29.73,5.0,West,10.4,-,0.01,,Overcast,280,2012-11-01 12:56:00
9:56 AM,39.0,37.0,93,29.74,8.0,West,9.2,-,0.01,,Overcast,280,2012-11-01 13:56:00
10:03 AM,39.2,37.4,93,29.72,10.0,West,8.1,-,N/A,,Overcast,280,2012-11-01 14:03:00
10:10 AM,39.2,37.4,93,29.72,10.0,West,8.1,17.3,N/A,,Overcast,280,2012-11-01 14:10:00
10:45 AM,39.2,37.4,93,29.73,10.0,WNW,6.9,-,0.01,,Overcast,290,2012-11-01 14:45:00
10:56 AM,39.0,37.0,93,29.75,10.0,West,11.5,-,0.01,,Overcast,280,2012-11-01 14:56:00
11:11 AM,39.2,37.4,93,29.73,10.0,WNW,10.4,16.1,0.01,,Overcast,290,2012-11-01 15:11:00
11:30 AM,39.2,37.4,93,29.73,10.0,West,5.8,-,0.01,,Overcast,280,2012-11-01 15:30:00
11:53 AM,39.2,35.6,87,29.73,10.0,West,10.4,17.3,0.02,,Overcast,280,2012-11-01 15:53:00
12:15 PM,39.2,35.6,87,29.74,10.0,WNW,9.2,-,N/A,,Overcast,290,2012-11-01 16:15:00
12:56 PM,39.9,36.0,86,29.75,10.0,WNW,10.4,-,0.01,,Overcast,290,2012-11-01 16:56:00
1:56 PM,39.0,35.1,86,29.76,10.0,West,11.5,19.6,0.01,,Overcast,270,2012-11-01 17:56:00
2:56 PM,39.0,34.0,82,29.75,10.0,West,11.5,19.6,0.01,,Overcast,280,2012-11-01 18:56:00
3:30 PM,37.4,33.8,87,29.73,10.0,West,9.2,-,0.01,,Overcast,270,2012-11-01 19:30:00
3:56 PM,37.9,35.1,89,29.76,10.0,West,11.5,-,0.02,,Overcast,260,2012-11-01 19:56:00
5:08 PM,39.2,33.8,81,29.74,10.0,West,4.6,-,N/A,,Overcast,260,2012-11-01 21:08:00
5:56 PM,37.9,33.1,83,29.76,10.0,SW,4.6,-,0.01,,Scattered Clouds,220,2012-11-01 21:56:00
6:56 PM,37.0,33.1,86,29.77,10.0,SSW,4.6,-,0.02,,Overcast,210,2012-11-01 22:56:00
7:56 PM,37.0,33.1,86,29.78,10.0,SW,4.6,-,0.01,,Overcast,220,2012-11-01 23:56:00
8:56 PM,37.0,34.0,89,29.78,10.0,SW,4.6,-,0.02,,Overcast,230,2012-11-02 00:56:00
9:56 PM,37.9,34.0,86,29.78,10.0,West,4.6,-,0.02,,Overcast,260,2012-11-02 01:56:00
10:56 PM,39.0,33.1,79,29.78,10.0,WNW,5.8,-,0.01,,Overcast,290,2012-11-02 02:56:00
11:56 PM,37.9,32.0,79,29.79,10.0,West,5.8,-,0.02,,Overcast,280,2012-11-02 03:56:00